EA6FG Weather Reports


Display with metric or nautical units.
time (UTC)temp
F
wind
direction
speed
MPH
gust
MPH
rain 1hr
in
rain 24hr
in
rain mn
in
humidity
%
barometer
mb
20260502123032 75 107 4.0 11.0 0.00 0.00 0.00 52 1019.4
20260502122029 75 85 3.0 11.0 0.00 0.00 0.00 54 1019.3
20260502121026 74 131 3.0 8.0 0.00 0.00 0.00 56 1019.5
20260502115020 73 85 2.0 7.0 0.00 0.00 0.00 58 1019.5
20260502114038 74 57 2.0 4.0 0.00 0.00 0.00 58 1019.6
20260502113135 74 194 2.0 6.0 0.00 0.00 0.00 58 1019.7
20260502112111 74 91 2.0 9.0 0.00 0.00 0.00 58 1019.9
20260502111129 72 166 2.0 6.0 0.00 0.00 0.00 61 1020.1
20260502110105 72 91 3.0 7.0 0.00 0.00 0.00 62 1020.0
20260502105102 73 87 3.0 9.0 0.00 0.00 0.00 61 1020.3
20260502104059 72 113 2.0 6.0 0.00 0.00 0.00 62 1020.3
20260502103117 72 91 2.0 7.0 0.00 0.00 0.00 63 1020.4
20260502102114 73 83 3.0 8.0 0.00 0.00 0.00 62 1020.4
20260502101050 72 78 3.0 8.0 0.00 0.00 0.00 63 1020.7
20260502100107 72 76 2.0 6.0 0.00 0.00 0.00 63 1020.7
20260502091033 71 55 2.0 8.0 0.00 0.00 0.00 65 1021.1
20260502071057 67 64 2.0 7.0 0.00 0.00 0.00 79 1021.2
20260502070114 66 60 3.0 7.0 0.00 0.00 0.00 83 1021.3
20260502065050 65 78 2.0 6.0 0.00 0.00 0.00 83 1021.3
20260502064108 64 66 2.0 6.0 0.00 0.00 0.00 83 1021.3
20260502063044 64 110 2.0 4.0 0.00 0.00 0.00 82 1021.3
20260502062042 65 84 1.0 4.0 0.00 0.00 0.00 80 1021.1
20260502061059 64 85 1.0 4.0 0.00 0.00 0.00 80 1021.0
20260502060036 64 45 1.0 2.0 0.00 0.00 0.00 79 1021.0
20260502055032 62 45 0.0 2.0 0.00 0.00 0.00 82 1020.7
20260502054029 60 45 0.0 2.0 0.00 0.00 0.00 83 1020.7
20260502053026 59 45 0.0 2.0 0.00 0.00 0.00 85 1020.5
20260502052024 59 0.0 0.0 0.00 0.00 0.00 85 1020.6
20260502051020 59 0.0 0.0 0.00 0.00 0.00 81 1020.5
20260502050017 59 0.0 2.0 0.00 0.00 0.00 82 1020.4
20260502045135 59 0.0 2.0 0.00 0.00 0.00 83 1020.4
20260502044112 60 0.0 2.0 0.00 0.00 0.00 83 1020.4
20260502043109 59 0.0 2.0 0.00 0.00 0.00 84 1020.4
20260502042127 59 0.0 2.0 0.00 0.00 0.00 85 1020.3
20260502041102 60 0.0 0.0 0.00 0.00 0.00 86 1020.5
20260502040100 60 0.0 2.0 0.00 0.00 0.00 86 1020.4
20260502035056 60 45 1.0 2.0 0.00 0.00 0.00 86 1020.4
20260502034053 61 45 0.0 2.0 0.00 0.00 0.00 86 1020.6
20260502033050 62 45 1.0 2.0 0.00 0.00 0.00 85 1020.5
20260502032048 61 45 1.0 4.0 0.00 0.00 0.00 85 1020.6
20260502031044 61 45 0.0 2.0 0.00 0.00 0.00 84 1020.5
20260502030042 61 0.0 2.0 0.00 0.00 0.00 85 1020.6
20260502025039 61 0.0 2.0 0.00 0.00 0.00 86 1020.6
20260502024036 61 0.0 0.0 0.00 0.00 0.00 86 1020.6
20260502023053 61 0.0 0.0 0.00 0.00 0.00 86 1020.6
20260502022030 61 0.0 2.0 0.00 0.00 0.00 86 1020.6
20260502021027 61 0.0 0.0 0.00 0.00 0.00 87 1020.7
20260502020024 61 0.0 0.0 0.00 0.00 0.00 87 1020.8
20260502015021 61 0.0 0.0 0.00 0.00 0.00 86 1020.9
20260502014018 62 0.0 0.0 0.00 0.00 0.00 85 1020.8
20260502013015 62 0.0 0.0 0.00 0.00 0.00 84 1020.9
20260502012112 63 0.0 0.0 0.00 0.00 0.00 82 1020.9
20260502011130 63 45 0.0 2.0 0.00 0.00 0.00 83 1020.7
20260502010107 63 45 0.0 2.0 0.00 0.00 0.00 83 1021.0
20260502005103 63 63 1.0 4.0 0.00 0.00 0.00 83 1021.0
20260502004100 63 45 2.0 2.0 0.00 0.00 0.00 82 1021.2
20260502003057 63 46 2.0 6.0 0.00 0.00 0.00 82 1021.3
20260502002055 63 50 2.0 4.0 0.00 0.00 0.00 82 1021.4
20260502001113 63 68 2.0 4.0 0.00 0.00 0.00 82 1021.6
20260502000048 63 55 1.0 4.0 0.00 0.00 0.00 82 1021.7
20260501235106 63 45 0.0 2.0 0.00 0.00 0.00 82 1021.8
20260501234042 63 46 2.0 4.0 0.00 0.00 0.00 82 1021.9
20260501233039 63 50 1.0 4.0 0.00 0.00 0.00 82 1022.0
20260501232036 63 54 1.0 2.0 0.00 0.00 0.00 82 1022.1
20260501231034 63 45 1.0 2.0 0.00 0.00 0.00 83 1022.3
20260501230031 63 68 0.0 2.0 0.00 0.00 0.00 84 1022.2
20260501225027 63 71 1.0 2.0 0.00 0.00 0.00 84 1022.3
20260501224024 63 56 0.0 2.0 0.00 0.00 0.00 84 1022.2
20260501223021 63 73 1.0 4.0 0.00 0.00 0.00 85 1022.1
20260501222018 63 60 2.0 4.0 0.00 0.00 0.00 85 1022.2
20260501221016 63 68 1.0 4.0 0.00 0.00 0.00 85 1022.3
20260501220113 64 70 1.0 6.0 0.00 0.00 0.00 85 1022.3
20260501215110 63 49 1.0 2.0 0.00 0.00 0.00 85 1022.2
20260501214107 63 54 1.0 4.0 0.00 0.00 0.00 85 1022.0
20260501213104 63 49 2.0 6.0 0.00 0.00 0.00 85 1021.9
20260501212101 63 60 2.0 4.0 0.00 0.00 0.00 85 1021.8
20260501211058 63 72 1.0 4.0 0.00 0.00 0.00 85 1021.8
20260501210055 63 54 1.0 4.0 0.00 0.00 0.00 84 1021.9
20260501205052 63 45 2.0 7.0 0.00 0.00 0.00 84 1021.7
20260501204049 63 66 1.0 6.0 0.00 0.00 0.00 84 1021.5
20260501203046 63 62 2.0 7.0 0.00 0.00 0.00 84 1021.6
20260501202043 63 79 1.0 2.0 0.00 0.00 0.00 84 1021.4
20260501201040 64 90 1.0 2.0 0.00 0.00 0.00 83 1021.4
20260501200037 64 49 1.0 4.0 0.00 0.00 0.00 82 1021.2
20260501195035 64 71 2.0 4.0 0.00 0.00 0.00 81 1021.2
20260501194031 64 45 3.0 7.0 0.00 0.00 0.00 81 1021.2
20260501193029 64 49 2.0 7.0 0.00 0.00 0.00 82 1021.2
20260501192046 65 51 3.0 8.0 0.00 0.00 0.00 82 1020.9
20260501191023 65 87 3.0 8.0 0.00 0.00 0.00 83 1020.7
20260501190100 65 102 1.0 4.0 0.00 0.00 0.00 83 1020.7
20260501185016 65 50 3.0 8.0 0.00 0.00 0.00 83 1020.4
20260501184113 65 62 2.0 6.0 0.00 0.00 0.00 83 1020.5
20260501183111 65 90 3.0 8.0 0.00 0.00 0.00 82 1020.4
20260501182108 65 96 3.0 7.0 0.00 0.00 0.00 82 1020.1
20260501181105 66 45 4.0 9.0 0.00 0.00 0.00 82 1020.0
20260501180101 66 82 3.0 7.0 0.00 0.00 0.00 82 1019.9
20260501175059 66 151 2.0 9.0 0.00 0.00 0.00 81 1019.8
20260501174056 66 92 2.0 8.0 0.00 0.00 0.00 81 1019.9
20260501173113 66 57 4.0 11.0 0.00 0.00 0.00 81 1019.8
20260501172050 66 68 3.0 7.0 0.00 0.00 0.00 81 1019.8
20260501171046 66 82 3.0 8.0 0.00 0.00 0.00 82 1019.7
20260501170043 66 90 1.0 4.0 0.00 0.00 0.00 83 1019.5
20260501165041 66 68 2.0 4.0 0.00 0.00 0.00 83 1019.5
20260501164038 66 68 1.0 4.0 0.00 0.00 0.00 84 1019.6
20260501163035 66 93 2.0 4.0 0.00 0.00 0.00 84 1019.5
20260501162032 65 70 1.0 4.0 0.00 0.00 0.00 84 1019.4
20260501161029 65 96 2.0 4.0 0.00 0.00 0.00 85 1019.6
20260501160026 65 59 3.0 8.0 0.00 0.00 0.00 84 1019.6
20260501155023 66 74 2.0 9.0 0.00 0.00 0.00 82 1019.5
20260501154020 66 56 2.0 8.0 0.00 0.00 0.00 81 1019.3
20260501153017 66 99 3.0 8.0 0.00 0.00 0.00 81 1019.4
20260501152115 66 111 3.0 7.0 0.00 0.00 0.00 81 1019.3
20260501151111 66 65 2.0 6.0 0.00 0.00 0.00 81 1019.2
20260501150108 67 64 2.0 7.0 0.00 0.00 0.00 82 1019.1
20260501145105 67 96 3.0 8.0 0.00 0.00 0.00 82 1019.1
20260501144102 67 102 4.0 11.0 0.00 0.00 0.00 81 1019.0
20260501143059 67 104 4.0 9.0 0.00 0.00 0.00 81 1019.0
20260501142056 67 57 2.0 4.0 0.00 0.00 0.00 82 1019.0
20260501141054 67 50 2.0 7.0 0.00 0.00 0.00 83 1019.2
20260501140110 66 97 1.0 4.0 0.00 0.00 0.00 85 1019.2
20260501135048 66 53 2.0 7.0 0.00 0.00 0.00 87 1019.2